Home   Weather   Spokane   Past weeks
Flag for USA

Past Weather in Spokane, Washington, USA — Yesterday and Last 2 Weeks

Now
40 °F

Passing clouds.


Feels Like: 40 °F
Forecast: 48 / 39 °F
Wind: No wind

Location: Felts Field

Current Time: Oct 21, 2019 at 9:06:28 am

Latest Report: Oct 21, 2019 at 7:53 am


Visibility: 10 mi

Pressure: 30.19 "Hg (28.14 "Hg at 569m altitude)

Humidity: 89%

Dew Point: 37 °F

Location of SpokaneLocation

Past Weather in Spokane — Graph

°F

Spokane Temperature Yesterday

Maximum temperature yesterday: 49 °F (at 1:53 pm)
Minimum temperature yesterday: 40 °F (at 5:53 am)
Average temperature yesterday: 42 °F

High & Low Weather Summary for the Past Weeks

 TemperatureHumidityPressure
High68 °F (Oct 7, 2:53 pm)96% (Oct 14, 7:53 am)30.54 "Hg (Oct 14, 7:53 am)
Low26 °F (Oct 10, 6:53 am)26% (Oct 8, 1:53 pm)29.58 "Hg (Oct 19, 10:30 am)
Average46 °F69%30.00 "Hg
* Reported Oct 6 7:53 am — Oct 21 7:53 am, Spokane. Weather by CustomWeather, © 2019

Note: Actual official high and low records may vary slightly from our data, if they occured in-between our weather recording intervals... More about our weather records

Advertising

Spokane Weather History for the Previous 24 Hours

Scroll right to see more
 ConditionsComfort  
Time TempWeatherWind HumidityBarometerVisibility
7:53 am
Mon, Oct 21
40 °FPassing clouds.No wind89%30.19 "Hg10 mi
7:31 am40 °FBroken clouds.No wind89%30.16 "Hg10 mi
6:53 am39 °FOvercast.No wind93%30.17 "Hg10 mi
5:53 am40 °FOvercast.No wind93%30.14 "Hg9 mi
5:16 am40 °FPassing clouds.No wind93%30.10 "Hg9 mi
4:53 am41 °FPassing clouds.No wind89%30.11 "Hg10 mi
3:53 am42 °FOvercast.No wind89%30.09 "Hg10 mi
2:53 am42 °FOvercast.No wind89%30.06 "Hg10 mi
1:53 am41 °FMostly cloudy.No wind89%30.03 "Hg10 mi
1:12 am41 °FMostly cloudy.No wind93%30.00 "Hg10 mi
12:53 am41 °FMostly cloudy.5 mph89%30.01 "Hg10 mi
11:53 pm
Sun, Oct 20
41 °FOvercast.No wind89%30.00 "Hg10 mi
10:53 pm41 °FMostly cloudy.No wind93%29.99 "Hg10 mi
10:22 pm41 °FOvercast.6 mph89%29.96 "Hg10 mi
9:53 pm41 °FLight rain. Overcast.5 mph89%29.98 "Hg9 mi
9:18 pm42 °FLight rain. Mostly cloudy.3 mph82%29.95 "Hg10 mi
8:53 pm42 °FRain. Fog.5 mph85%29.97 "Hg6 mi
8:08 pm42 °FLight rain. Mostly cloudy.No wind85%29.97 "Hg10 mi
7:42 pm42 °FMostly cloudy.5 mph85%29.96 "Hg10 mi
6:53 pm41 °FOvercast.5 mph89%30.00 "Hg10 mi
5:53 pm41 °FLight rain. Overcast.3 mph82%30.01 "Hg10 mi
4:53 pm42 °FLight rain. Overcast.7 mph79%30.03 "Hg10 mi
4:39 pm42 °FLight rain. Mostly cloudy.10 mph79%30.02 "Hg9 mi
3:53 pm44 °FLight rain. Cloudy.12 mph71%30.04 "Hg10 mi
2:53 pm48 °FMostly cloudy.13 mph61%30.03 "Hg10 mi
1:53 pm49 °FPartly sunny.15 mph57%30.04 "Hg10 mi
1:00 pm48 °FMostly cloudy.8 mph63%30.05 "Hg10 mi
11:53 am46 °FMostly cloudy.No wind71%30.09 "Hg10 mi
11:00 am43 °FMostly cloudy.7 mph76%30.07 "Hg10 mi
9:53 am41 °FOvercast.7 mph80%30.09 "Hg10 mi
Weather by CustomWeather, © 2019

See weather overview